#timestamp,LO_Frequency,Hit,StdDev 
1582912815.9,286047068.2,P
1582912835.7,286047068.4,Y
1582912855.5,286046999.2,P
1582912875.4,286046997.9,N
1582912895.2,286046996.3,N
1582912915.0,286046993.9,N
1582912916.0,286046993.9,N
1582912935.8,286046994.1,N
1582912955.6,286046992.4,N
1582912975.5,286046992.0,N
1582912995.3,286046993.0,N
1582913015.1,286046992.7,N
1582913035.9,286046993.1,N
1582913055.7,286046991.1,N
1582913075.6,286046989.0,N
1582913095.4,286046987.0,N
1582913115.2,286046988.2,N
1582913135.1,286046985.8,N
1582913136.0,286046985.8,N
1582913155.8,286046986.5,N
1582913175.6,286046986.5,N
1582913195.5,286046986.8,N
1582913215.3,286046984.8,N
1582913235.2,286046982.3,N
1582913255.9,286046983.6,N
1582913275.7,286046979.5,N
1582913295.6,286046977.4,N
1582913315.4,286046975.9,N
1582913335.2,286046976.5,N
1582913355.1,286046974.1,N
1582913356.0,286046974.1,N
1582913375.8,286046975.6,N
1582913395.7,286046972.2,Y
1582913415.5,286046984.5,P
1582913435.3,286046983.3,P
1582913455.2,286046980.5,P
1582913475.0,286046979.2,Y
1582913475.9,286046979.2,P
1582913495.8,286046994.9,N
1582913515.6,286046996.3,N
1582913535.4,286046993.9,N
1582913555.3,286046992.6,N
1582913605.2,286046989.3,E
1582913615.1,286046994.3,N
1582913616.0,286046994.3,P
1582913635.8,286046996.9,P
1582913655.7,286046997.2,N
1582913675.5,286046993.7,Y
1582913695.3,286046996.6,P
1582913715.2,286046997.6,P
1582913735.0,286046994.1,P
1582913735.9,286046994.1,Y
1582913755.7,286046997.1,P
1582913775.6,286046993.7,P
1582913795.4,286046992.9,P
1582913815.3,286046991.0,Y
1582913835.1,286046994.3,P
1582913855.8,286046992.5,P
1582913875.7,286046992.8,P
1582913895.5,286046991.4,Y
1582913915.4,286046995.9,P
1582913935.2,286046994.2,P
1582913955.0,286046992.2,P
1582913955.9,286046992.2,Y
1582913975.8,286046995.4,P
1582913995.6,286046993.6,P
1582914015.4,286046991.7,P
1582914035.3,286046991.9,Y
1582914055.1,286046997.0,P
1582914075.9,286046997.8,N
1582914095.7,286046996.1,N
1582914115.5,286046994.6,Y
1582914135.4,286046995.4,P
1582914155.2,286046996.2,P
1582914175.1,286046994.2,P
1582914176.0,286046994.2,Y
1582914195.8,286046997.4,P
1582914215.6,286046994.9,P
1582914235.5,286046996.3,P
1582914255.3,286046991.8,Y
1582914275.1,286046995.1,P
1582914295.9,286046993.9,P
1582914315.7,286046991.7,P
1582914335.6,286046993.2,Y
1582914355.4,286046995.4,P
1582914375.2,286046996.4,P
1582914395.1,286046994.2,P
1582914396.0,286046994.2,Y
1582914415.8,286046999.6,P
1582914435.7,286046995.3,N
1582914455.5,286046993.3,P
1582914475.3,286046994.2,N
1582914495.2,286046992.0,Y
1582914515.0,286046995.1,P
1582914515.9,286046995.1,P
1582914535.7,286046996.1,P
1582914555.6,286046996.0,Y
1582914575.4,286046996.5,P
1582914595.3,286046997.8,P
1582914615.1,286046996.2,P
1582914616.0,286046996.2,Y
1582914635.8,286046997.4,P
1582914655.7,286046995.0,P
1582914675.5,286046995.1,P
1582914695.4,286046995.5,Y
1582914715.2,286046997.1,P
1582914735.0,286046995.5,P
1582914735.9,286046995.5,P
1582914755.8,286046993.5,Y
1582914775.6,286046997.6,P
1582914795.5,286046996.1,P
1582914815.3,286046995.8,P
1582914835.1,286046994.5,Y
1582914855.9,286046998.0,P
1582914875.7,286046997.5,P
1582914895.6,286046995.4,P
1582914915.4,286046994.6,Y
1582914935.2,286046997.5,P
1582914955.1,286046996.3,P
1582914956.0,286046996.3,P
1582914975.8,286046993.3,Y
1582914995.7,286046995.3,P
1582915015.5,286046996.0,P
1582915035.3,286046994.4,P
1582915055.2,286046993.7,Y
1582915075.0,286046996.5,P
1582915075.9,286046996.5,P
1582915095.7,286046997.5,P
1582915115.6,286046993.6,Y
1582915135.4,286046997.4,P
1582915155.3,286046997.7,P
1582915175.1,286046997.6,P
1582915195.8,286046996.1,Y
1582915215.7,286046997.2,P
1582915235.5,286046993.4,P
1582915255.4,286046993.6,P
1582915275.2,286046994.6,N
1582915295.0,286046994.4,Y
1582915295.9,286046994.4,P
1582915315.8,286046999.2,N
1582915335.6,286046997.1,N
1582915355.4,286046997.5,N
1582915375.3,286046995.4,N
1582915395.1,286046996.3,N
1582915415.9,286046995.2,Y
1582915435.7,286046999.3,P
1582915455.5,286046996.8,N
1582915475.4,286046997.4,N
1582915495.2,286046995.8,Y
1582915515.0,286046997.6,P
15829155161582916375.1,286046973.7,P
1582916376.0,286046973.7,P
1582916395.8,286046973.6,P
